TimeCST,TemperatureF,Dew PointF,Humidity,Sea Level PressureIn,VisibilityMPH,Wind Direction,Wind SpeedMPH,Gust SpeedMPH,PrecipitationIn,Events,Conditions,WindDirDegrees,DateUTC
12:15 AM,52.2,42.6,70,30.14,10.0,SSE,3.5,-,N/A,,Scattered Clouds,150,2013-11-09 06:15:00
12:35 AM,52.5,42.3,68,30.14,10.0,Calm,Calm,-,N/A,,Clear,0,2013-11-09 06:35:00
12:55 AM,52.9,41.9,66,30.14,10.0,South,4.6,-,N/A,,Scattered Clouds,190,2013-11-09 06:55:00
1:15 AM,53.1,42.8,68,30.14,10.0,Calm,Calm,-,N/A,,Scattered Clouds,0,2013-11-09 07:15:00
1:35 AM,53.1,43.9,71,30.14,10.0,South,3.5,-,N/A,,Mostly Cloudy,170,2013-11-09 07:35:00
1:55 AM,53.6,44.8,72,30.13,10.0,South,4.6,-,N/A,,Overcast,170,2013-11-09 07:55:00
2:15 AM,53.6,45.7,75,30.13,10.0,South,5.8,-,N/A,,Mostly Cloudy,170,2013-11-09 08:15:00
2:35 AM,53.6,46.0,76,30.12,10.0,South,6.9,-,N/A,,Scattered Clouds,170,2013-11-09 08:35:00
2:55 AM,53.6,46.6,77,30.12,10.0,South,5.8,-,N/A,,Overcast,190,2013-11-09 08:55:00
3:15 AM,53.8,47.3,79,30.11,10.0,South,4.6,-,N/A,,Overcast,170,2013-11-09 09:15:00
3:35 AM,53.8,47.3,79,30.11,10.0,South,3.5,-,N/A,,Mostly Cloudy,190,2013-11-09 09:35:00
3:55 AM,54.0,47.8,80,30.11,10.0,SSW,5.8,-,N/A,,Mostly Cloudy,200,2013-11-09 09:55:00
4:15 AM,54.5,48.7,81,30.12,10.0,SSW,5.8,-,N/A,,Overcast,210,2013-11-09 10:15:00
4:35 AM,54.5,48.9,81,30.11,10.0,South,6.9,-,N/A,,Overcast,180,2013-11-09 10:35:00
4:55 AM,54.5,49.1,82,30.12,10.0,SSW,5.8,-,N/A,,Overcast,200,2013-11-09 10:55:00
5:15 AM,54.5,49.3,83,30.12,10.0,SSW,5.8,-,N/A,Rain,Light Rain,200,2013-11-09 11:15:00
5:35 AM,54.1,49.5,84,30.13,10.0,SSW,5.8,-,N/A,,Overcast,210,2013-11-09 11:35:00
5:55 AM,54.0,49.5,85,30.13,10.0,SSW,6.9,-,N/A,,Overcast,200,2013-11-09 11:55:00
6:15 AM,53.8,49.5,85,30.13,10.0,South,8.1,-,N/A,,Overcast,190,2013-11-09 12:15:00
6:35 AM,54.0,50.0,86,30.14,10.0,SSW,5.8,-,N/A,,Overcast,210,2013-11-09 12:35:00
6:55 AM,54.0,50.0,86,30.14,10.0,SSW,4.6,-,N/A,,Overcast,210,2013-11-09 12:55:00
7:15 AM,53.8,50.0,87,30.15,10.0,SSW,4.6,-,N/A,,Overcast,200,2013-11-09 13:15:00
7:35 AM,54.0,50.0,86,30.16,10.0,SSW,3.5,-,N/A,,Overcast,200,2013-11-09 13:35:00
7:55 AM,54.1,50.2,86,30.16,10.0,South,3.5,-,N/A,,Overcast,190,2013-11-09 13:55:00
8:15 AM,54.5,50.4,86,30.16,10.0,SSW,3.5,-,N/A,,Overcast,200,2013-11-09 14:15:00
8:35 AM,55.4,50.7,84,30.17,10.0,SSW,3.5,-,N/A,,Overcast,210,2013-11-09 14:35:00
8:55 AM,55.0,50.7,85,30.18,10.0,SSW,4.6,-,N/A,,Overcast,200,2013-11-09 14:55:00
9:15 AM,55.6,51.1,85,30.18,10.0,South,4.6,-,N/A,,Overcast,180,2013-11-09 15:15:00
9:35 AM,57.2,51.1,80,30.18,10.0,SSW,6.9,-,N/A,,Overcast,210,2013-11-09 15:35:00
9:55 AM,57.9,50.9,77,30.18,10.0,South,10.4,-,N/A,,Overcast,190,2013-11-09 15:55:00
10:15 AM,58.3,51.1,77,30.18,10.0,SSW,6.9,-,N/A,,Overcast,200,2013-11-09 16:15:00
10:35 AM,59.2,51.8,77,30.18,10.0,SSW,8.1,-,N/A,,Overcast,200,2013-11-09 16:35:00
10:55 AM,60.4,52.0,74,30.18,10.0,SSW,9.2,-,N/A,,Overcast,210,2013-11-09 16:55:00
11:15 AM,60.4,51.8,73,30.17,10.0,South,9.2,-,N/A,,Overcast,190,2013-11-09 17:15:00
11:35 AM,61.0,52.3,73,30.16,10.0,SSW,12.7,-,N/A,,Overcast,200,2013-11-09 17:35:00
11:55 AM,61.2,53.2,75,30.16,10.0,South,12.7,-,N/A,,Overcast,190,2013-11-09 17:55:00
12:15 PM,61.3,53.1,74,30.16,10.0,SSW,9.2,-,N/A,,Overcast,210,2013-11-09 18:15:00
12:35 PM,61.3,53.1,74,30.14,10.0,South,12.7,-,N/A,,Overcast,190,2013-11-09 18:35:00
12:55 PM,62.2,53.4,73,30.14,10.0,South,15.0,-,N/A,,Overcast,190,2013-11-09 18:55:00
1:15 PM,62.8,53.4,71,30.13,10.0,SSW,15.0,18.4,N/A,,Overcast,210,2013-11-09 19:15:00
1:35 PM,62.8,53.4,71,30.12,10.0,SSW,12.7,16.1,N/A,,Overcast,200,2013-11-09 19:35:00
1:55 PM,63.0,53.1,70,30.11,10.0,SSW,12.7,-,N/A,,Overcast,210,2013-11-09 19:55:00
2:15 PM,63.0,53.4,71,30.12,10.0,South,11.5,-,N/A,,Overcast,190,2013-11-09 20:15:00
2:35 PM,63.1,53.4,71,30.11,10.0,SSW,12.7,18.4,N/A,,Overcast,200,2013-11-09 20:35:00
2:55 PM,63.3,53.8,71,30.11,10.0,SSW,11.5,-,N/A,,Overcast,210,2013-11-09 20:55:00
3:15 PM,62.6,54.0,73,30.12,10.0,South,9.2,-,N/A,,Overcast,190,2013-11-09 21:15:00
3:35 PM,62.8,53.6,72,30.12,10.0,SSW,10.4,-,N/A,,Overcast,200,2013-11-09 21:35:00
3:55 PM,62.6,54.0,73,30.12,10.0,South,10.4,-,N/A,,Overcast,190,2013-11-09 21:55:00
4:15 PM,62.6,53.8,73,30.12,10.0,SSW,9.2,17.3,N/A,,Overcast,200,2013-11-09 22:15:00
4:35 PM,62.6,54.0,73,30.13,10.0,SSW,11.5,-,N/A,,Overcast,200,2013-11-09 22:35:00
4:55 PM,62.6,53.8,73,30.13,10.0,SSW,9.2,-,N/A,,Overcast,200,2013-11-09 22:55:00
5:15 PM,62.2,53.8,74,30.14,10.0,SSW,6.9,-,N/A,,Overcast,200,2013-11-09 23:15:00
5:35 PM,62.2,54.0,74,30.14,10.0,South,9.2,-,N/A,,Overcast,190,2013-11-09 23:35:00
5:55 PM,62.1,53.8,74,30.15,10.0,South,9.2,-,N/A,,Overcast,190,2013-11-09 23:55:00
6:15 PM,62.1,54.0,75,30.16,10.0,SSW,6.9,-,N/A,,Overcast,200,2013-11-10 00:15:00
6:35 PM,61.9,54.5,77,30.16,10.0,South,5.8,-,N/A,,Overcast,190,2013-11-10 00:35:00
6:55 PM,61.9,54.5,77,30.16,10.0,South,5.8,-,N/A,,Overcast,190,2013-11-10 00:55:00
7:15 PM,61.7,54.5,77,30.17,10.0,South,4.6,-,N/A,,Overcast,190,2013-11-10 01:15:00
7:35 PM,61.7,54.7,78,30.17,10.0,SSW,3.5,-,N/A,,Overcast,200,2013-11-10 01:35:00
8:35 PM,60.8,55.0,81,30.18,10.0,Calm,Calm,-,N/A,,Overcast,0,2013-11-10 02:35:00
8:55 PM,60.8,55.2,82,30.18,10.0,Calm,Calm,-,N/A,,Overcast,0,2013-11-10 02:55:00
9:15 PM,60.4,55.4,83,30.18,10.0,Calm,Calm,-,N/A,,Overcast,0,2013-11-10 03:15:00
9:35 PM,60.4,55.0,82,30.19,10.0,Calm,Calm,-,N/A,,Overcast,0,2013-11-10 03:35:00
9:55 PM,60.8,55.0,81,30.19,10.0,Calm,Calm,-,N/A,,Overcast,0,2013-11-10 03:55:00
10:15 PM,59.9,55.0,84,30.19,10.0,Calm,Calm,-,N/A,,Overcast,0,2013-11-10 04:15:00
10:35 PM,58.6,54.7,87,30.19,10.0,ESE,3.5,-,N/A,,Mostly Cloudy,110,2013-11-10 04:35:00
10:55 PM,59.0,54.9,86,30.19,10.0,Calm,Calm,-,N/A,,Overcast,0,2013-11-10 04:55:00
11:15 PM,58.1,54.5,88,30.19,10.0,Calm,Calm,-,N/A,,Overcast,0,2013-11-10 05:15:00
11:35 PM,57.4,54.3,90,30.20,10.0,Calm,Calm,-,N/A,,Mostly Cloudy,0,2013-11-10 05:35:00
11:55 PM,55.9,53.2,91,30.20,10.0,Calm,Calm,-,N/A,,Overcast,0,2013-11-10 05:55:00